Location: Sunkist
(34.0772°N, 117.1909°W)
Time: 16:31:01
(UTC+00:00)

DMSP B5D2-2 - Pass Details

Date: 13 April 2024
Orbit: 788 x 802 km, 98.3° (Epoch: 27 May)

Event Time Altitude Azimuth Distance (km) Brightness Sun altitude
Rises 12:10:10 0° 177° (S) 3,272 7.1 -14.6°
Reaches altitude 10° 12:12:31 10° 182° (S) 2,345 6.3 -14.1°
Maximum altitude 12:17:35 55° 260° (W) 941 4.1 -13.1°
Drops below altitude 10° 12:22:41 10° 338° (NNW) 2,355 6.5 -12.1°
Sets 12:25:04 0° 342° (NNW) 3,287 7.3 -11.7°
